Regional Weather Roundup
Issued by NWS

Home | Current Version | Previous Version | Graphics & Text | Print | Product List | Glossary On
Versions: 1 2 3 4 5 6 7 8 9 10 11 12 13 14 15 16 17 18 19 20 21 22 23 24 25 26 27 28 29 30 31 32 33 34 35 36 37 38 39 40 41 42 43 44 45 46 47 48 49 50
000
ASUS45 KABQ 301401
RWRNM
NEW MEXICO REGIONAL WEATHER ROUNDUP
NATIONAL WEATHER SERVICE ALBUQUERQUE NM
800 AM MDT MON MAY 30 2016

NOTE: "FAIR" MEANS FEW OR NO CLOUDS BELOW 12,000 FEET AGL WITH NO
       SIGNIFICANT WEATHER OR OBSTRUCTIONS TO VISION.

      THIS PRODUCT IS RELEASED AS TWO VERSIONS.  ONE VERSION NEAR
      THE TOP OF THE HOUR CONTAINING PRELIMINARY DATA FROM ALBUQUERQUE
      AND OTHER STATIONS.  A FINAL VERSION WITH ADDITIONAL DATA IS
      ISSUED ABOUT 10 MINUTES AFTER THE HOUR.

NMZ501-503-504-510>518-301500-
NORTHWEST PLATEAU/NORTHCENTRAL MOUNTAINS

CITY           SKY/WX    TMP DP  RH WIND       PRES   REMARKS
FARMINGTON     FAIR      53  27  36 E9        30.13R
SANTA FE       FAIR      57  43  59 N5        30.19R
TAOS           FAIR      54  30  40 CALM      30.24S

$$
NMZ402-403-502-505>509-301500-
WESTCENTRAL MOUNTAINS/SOUTHWEST MOUNTAINS

CITY           SKY/WX    TMP DP  RH WIND       PRES   REMARKS
GALLUP         FAIR      52  21  29 NE5       30.20R
GRANTS         FAIR      50  15  24 N3        30.22S
SILVER CITY      N/A     64  25  22 NE3       30.17S

$$
NMZ407-409-411-412-301500-
SOUTHERN DESERTS

CITY           SKY/WX    TMP DP  RH WIND       PRES   REMARKS
LORDSBURG      FAIR      68  34  28 S3        30.08S
DEMING         FAIR      69  37  30 NW5       30.10S
HOLLOMAN AFB   FAIR      74  39  28 S7        30.07R
ALAMOGORDO     FAIR      68  37  32 CALM      30.10R
T OR C         FAIR      69  32  25 W5        30.11R

$$
NMZ519>523-301500-
CENTRAL VALLEYS/CENTRAL HIGHLANDS

CITY           SKY/WX    TMP DP  RH WIND       PRES   REMARKS
ALBUQUERQUE    PTSUNNY   61  44  53 NW5       30.14R
CLINES CORNERS FOG       48  47  96 SE7       30.22R VSB 3/4
BELEN          FAIR      61  36  39 CALM      30.15R
SOCORRO        NOT AVBL

$$
NMZ524>526-539-540-301500-
SOUTHCENTRAL MOUNTAINS

CITY           SKY/WX    TMP DP  RH WIND       PRES   REMARKS
RUIDOSO        NOT AVBL

$$
NMZ527>531-301500-
NORTHEAST HIGHLANDS/NORTHEAST PLAINS

CITY           SKY/WX    TMP DP  RH WIND       PRES   REMARKS
LAS VEGAS      FAIR      51  45  79 SW14      30.22R
RATON          CLOUDY    52  45  77 CALM      30.17F
CLAYTON        CLOUDY    59  52  77 S10       30.14R

$$
NMZ532>537-301500-
EASTCENTRAL PLAINS

CITY           SKY/WX    TMP DP  RH WIND       PRES   REMARKS
TUCUMCARI      CLOUDY    57  53  86 SW5       30.13S
CANNON AFB     CLOUDY    59  55  87 SW5       30.15R
CLOVIS AIRPORT CLOUDY    61  50  67 SW10      30.14S

$$
NMZ028-029-538-301500-
SOUTHEAST PLAINS

CITY           SKY/WX    TMP DP  RH WIND       PRES   REMARKS
ROSWELL        CLOUDY    63  52  67 SE6       30.11S
ARTESIA        CLOUDY    63  59  88 S6        30.11S
CARLSBAD       CLOUDY    64  55  72 CALM      30.09S
HOBBS          CLOUDY    59  59 100 NE6       30.14R


$$




USA.gov is the U.S. government's official web portal to all federal, state and local government web resources and services.